Location: Unspecified
(0.0000°N, 0.0000°E)
Time: 18:49:43
(UTC+00:00)

Altair - Pass Details

Date: 22 November 2019
Orbit: 1502 x 1682 km, 47.2° (Epoch: 05 December)

Event Time Altitude Azimuth Distance (km) Brightness Sun altitude
Rises 00:28:47 0° 245° (WSW) 4,768 - -67.4°
Reaches altitude 10° 00:32:29 10° 255° (WSW) 3,754 - -67.0°
Maximum altitude 00:40:12 28° 311° (NW) 2,544 - -66.0°
Drops below altitude 10° 00:47:46 10° 7° (N) 3,656 - -64.9°
Sets 00:51:22 0° 18° (NNE) 4,625 - -64.4°
